Weather History for KLRF - November, 2012

Change the Weather History Date:

Sunday, November 4, 2012

  Actual Average Record
Temperature  
Mean Temperature 50 °F -  
Max Temperature 63 °F 64 °F 84 °F (1978)
Min Temperature 39 °F 41 °F 19 °F (1991)
Degree Days  
Heating Degree Days 14    
Moisture  
Dew Point 39 °F    
Average Humidity 68    
Maximum Humidity 93    
Minimum Humidity 42    
Precipitation  
Precipitation 0.00 in - - ()
Sea Level Pressure  
Sea Level Pressure 30.17 in    
Wind  
Wind Speed 5 mph (NE)    
Max Wind Speed 10 mph    
Max Gust Speed -    
Visibility 9 miles    
Events      
Averages and records for this station are not official NWS values.
T = Trace of Precipitation, MM = Missing Value Source: NWS Daily Summary

Daily Weather History Graph

Daily Weather History Graph

Search for Another Location

Airport or City:

Trip Planner

Search our weather history database for the weather conditions in past years. The results will help you decide how hot, cold, wet, or windy it might be!

Date:

Astronomy

Nov. 04, 2012 Rise Set
Actual Time 6:32 AM CST 5:11 PM CST
Civil Twilight 6:06 AM CST 5:37 PM CST
Nautical Twilight 5:36 AM CST 6:07 PM CST
Astronomical Twilight 5:06 AM CST 6:37 PM CST
Moon 9:51 PM CST (11/4) 11:14 AM CST (11/4)
Length of Visible Light 11h 31m
Length of Day
10h 38m
Waning Gibbous, 72% of the Moon is Illuminated
Nov 4
Waning Gibbous
Nov 6
Last Quarter
Nov 13
New
Nov 20
First Quarter
Nov 28
Full

Hourly Weather History & Observations

Time (CST) Temp. Windchill Dew Point Humidity Pressure Visibility Wind Dir Wind Speed Gust Speed Precip Events Conditions
12:55 AM 57.6 °F - 41.9 °F 56% 30.14 in 10.0 mi NNE 5.8 mph - N/A   Partly Cloudy
1:55 AM 55.8 °F - 41.5 °F 59% 30.14 in 10.0 mi NNE 5.8 mph - N/A   Scattered Clouds
1:55 AM 54.7 °F - 41.4 °F 61% 30.17 in 10.0 mi NNE 5.8 mph - N/A   Mostly Cloudy
2:55 AM 52.3 °F - 40.6 °F 64% 30.15 in 10.0 mi NNE 5.8 mph - N/A   Clear
3:55 AM 50.2 °F - 40.6 °F 70% 30.16 in 10.0 mi North 4.6 mph - N/A   Scattered Clouds
4:55 AM 48.4 °F - 39.6 °F 72% 30.17 in 10.0 mi North 5.8 mph - N/A   Clear
5:55 AM 46.6 °F - 38.5 °F 73% 30.18 in 10.0 mi NNE 3.5 mph - N/A   Clear
6:55 AM 45.3 °F 42.3 °F 38.1 °F 76% 30.19 in 10.0 mi NNE 5.8 mph - N/A   Clear
7:55 AM 48.0 °F - 38.5 °F 70% 30.21 in 10.0 mi NNE 8.1 mph - N/A   Clear
8:55 AM 50.4 °F - 38.8 °F 65% 30.23 in 10.0 mi ENE 9.2 mph - N/A   Clear
9:55 AM 53.4 °F - 39.0 °F 58% 30.23 in 10.0 mi Variable 4.6 mph - N/A   Clear
10:55 AM 57.4 °F - 38.7 °F 50% 30.23 in 10.0 mi NE 8.1 mph - N/A   Partly Cloudy
11:55 AM 58.1 °F - 39.2 °F 49% 30.21 in 10.0 mi Variable 6.9 mph - N/A   Clear
12:55 PM 60.3 °F - 39.0 °F 45% 30.18 in 10.0 mi ENE 9.2 mph - N/A   Clear
1:55 PM 62.6 °F - 39.7 °F 43% 30.15 in 10.0 mi ENE 6.9 mph - N/A   Clear
2:55 PM 62.8 °F - 39.2 °F 42% 30.14 in 10.0 mi ENE 10.4 mph - N/A   Clear
3:55 PM 62.1 °F - 39.7 °F 44% 30.13 in 10.0 mi ENE 5.8 mph - N/A   Clear
4:55 PM 58.5 °F - 39.9 °F 50% 30.13 in 10.0 mi East 4.6 mph - N/A   Clear
5:55 PM 50.0 °F - 41.4 °F 72% 30.15 in 10.0 mi Calm Calm - N/A   Clear
6:55 PM 45.5 °F - 40.6 °F 83% 30.15 in 10.0 mi Calm Calm - N/A   Clear
7:55 PM 44.2 °F - 40.3 °F 86% 30.17 in 9.0 mi Calm Calm - N/A   Clear
8:55 PM 41.4 °F - 38.7 °F 90% 30.17 in 10.0 mi Calm Calm - N/A   Clear
9:55 PM 40.8 °F - 37.9 °F 89% 30.17 in 10.0 mi Calm Calm - N/A   Clear
10:14 PM 39.2 °F - 37.4 °F 93% 30.17 in 2.5 mi Calm Calm - N/A   Clear
10:28 PM 39.2 °F - 37.4 °F 93% 30.16 in 2.0 mi Calm Calm - N/A   Clear
10:38 PM 41.0 °F - 37.4 °F 87% 30.16 in 1.8 mi Calm Calm - N/A   Clear
10:55 PM 39.9 °F - 37.4 °F 91% 30.16 in 1.8 mi Calm Calm - N/A   Clear